[[{"header":{"parameterUnit":"m.s-1","parameterCategory":1,"la1":30.2991,"la2":30.254,"lo1":-89.0895,"lo2":-89.0444,"dy":0.0017,"dx":0.0017,"nx":28,"ny":28,"refTime":"2026-02-12T03:00:00:Z","depth":0,"parameterNumber":2,"parameterNumberName":"U-component_of_WINDS"},"data":[0,0,0,0,0,0,0,0,0,0,0,0,0,0,0,0,0,0,0,0,0,0,0,0,0,0,0,0,0,0,0,0,0,0,0,0,0,0,0,0,0,0,0,0,0,0,0,0,0,0,0,0,0,0,0,0,0,0,0.3335,0.3336,0,0.3362,0.3362,0.3363,0.3375,0.3375,0.3375,0.3375,0.3403,0.3404,0.3405,0,0,0,0,0,0,0,0,0,0,0,0,0,0.3294,0.3295,0.3335,0.3336,0.3336,0.3362,0.3362,0.3363,0.3375,0.3375,0.3375,0.3375,0.3403,0.3404,0.3405,0,0,0,0,0,0,0,0,0,0,0,0,0,0.3316,0.3295,0.3335,0.3345,0.3347,0.3362,0.3362,0.3363,0.3375,0.3375,0.3375,0.3375,0.3403,0.3404,0.3405,0.3412,0,0,0.3408,0.3409,0,0,0,0,0,0,0,0,0.3315,0.3317,0.3344,0.3345,0.3346,0.3365,0.3358,0.3379,0.3375,0.3364,0.3375,0.3375,0.3391,0.3393,0.3398,0.3414,0.3415,0.3408,0.3409,0.341,0.341,0,0,0,0,0,0,0,0.3313,0.3316,0.3346,0.3344,0.3345,0.3348,0.3351,0.3362,0.3377,0.3365,0.3366,0.3369,0.3391,0.3397,0.3399,0.3415,0.3408,0.3409,0.341,0.3411,0.3437,0.3437,0,0,0,0,0,0,0.331,0.3315,0.3345,0.3347,0.333,0.3349,0.3353,0.3359,0.3377,0.338,0.3369,0.337,0.3395,0.3397,0.34,0.3409,0.341,0.3411,0.3411,0.3437,0.3437,0.3437,0,0,0,0,0,0,0.3309,0.3313,0.3344,0.3331,0.3335,0.335,0.3357,0.336,0.3365,0.338,0.3383,0.3372,0.3395,0.3398,0.3409,0.341,0.3411,0.3412,0.3437,0.3437,0.3437,0.3428,0,0,0,0,0,0,0.3308,0.3312,0.3315,0.3331,0.3336,0.3353,0.3357,0.336,0.3367,0.3368,0.3384,0.3386,0.3395,0.3407,0.341,0.3412,0.3413,0.3437,0.3437,0.3437,0.3428,0.3428,0.3427,0,0,0,0,0,0.3306,0.3312,0.3315,0.3319,0.334,0.3353,0.3356,0.3366,0.3367,0.337,0.338,0.3386,0.3409,0.3408,0.3411,0.3414,0.3437,0.3437,0.3437,0.3428,0.3428,0.3427,0,0,0,0,0,0,0.3296,0.3314,0.3318,0.3329,0.3339,0.3355,0.3359,0.3365,0.3375,0.3375,0.3388,0.3391,0.34,0.3408,0.3406,0.3421,0.3424,0.3425,0.3416,0.3415,0.3415,0.3413,0.3414,0,0,0,0,0,0.3295,0.3304,0.3319,0.3327,0.3332,0.3345,0.3351,0.3357,0.3369,0.3373,0.3383,0.3394,0.3404,0.341,0.342,0.3429,0.3433,0.3432,0.3432,0.3431,0.3432,0.3437,0.3436,0.3438,0.3438,0.3438,0,0,0.3293,0.3304,0.3309,0.3325,0.3334,0.3343,0.3348,0.3358,0.3364,0.3374,0.3385,0.3393,0.3406,0.3415,0.342,0.3422,0.3432,0.3431,0.3431,0.3432,0.3437,0.3436,0.3436,0.3438,0.3438,0.3438,0,0,0.3294,0.3303,0.3311,0.3319,0.3332,0.334,0.3342,0.3357,0.3362,0.3373,0.3381,0.3389,0.3405,0.3414,0.342,0.3423,0.3429,0.3426,0.3423,0.3428,0.3428,0.3428,0.3428,0.3428,0.3426,0.3426,0.3426,0,0.329,0.3304,0.3314,0.3322,0.3329,0.3338,0.3346,0.3353,0.3369,0.3373,0.3375,0.3395,0.3405,0.3416,0.3417,0.3422,0.3424,0.3424,0.3427,0.3427,0.3427,0.3428,0.3428,0.3426,0.3426,0.3426,0.3426,0,0.3298,0.3307,0.3311,0.3326,0.3333,0.3341,0.3352,0.3358,0.3363,0.3371,0.3382,0.3393,0.3405,0.3408,0.3414,0.342,0.3421,0.3424,0.3427,0.3426,0.3427,0.3427,0.3425,0.3425,0.3426,0.3426,0,0,0.3294,0.3313,0.3314,0.3321,0.3335,0.3342,0.335,0.3361,0.3366,0.3376,0.3383,0.3396,0.3399,0.3407,0.3414,0.3418,0.3418,0.3421,0.3421,0.3419,0.3425,0.3422,0.3422,0.3422,0.3422,0.3422,0.3424,0,0.3296,0.3311,0.332,0.3331,0.3339,0.3348,0.3354,0.3364,0.3371,0.3379,0.3387,0.3396,0.34,0.3404,0.3408,0.3417,0.3419,0.3417,0.3428,0.3428,0.3424,0.3423,0.342,0.3421,0.3424,0.3424,0.3424,0,0.3302,0.3311,0.3323,0.3335,0.3339,0.3345,0.3356,0.3363,0.3374,0.3379,0.3386,0.3393,0.3401,0.3403,0.3415,0.3413,0.3418,0.3422,0.3423,0.3424,0.3426,0.3424,0.3421,0.3421,0.3425,0.3425,0.3425,0,0.3297,0.3313,0.3321,0.3326,0.3342,0.3345,0.3352,0.3363,0.3368,0.3378,0.3382,0.3392,0.3397,0.3405,0.3414,0.3415,0.3424,0.3427,0.3428,0.3428,0.343,0.3429,0.3428,0.3433,0.3433,0.3433,0.3433,0,0.3299,0.3306,0.3319,0.3325,0.3332,0.3342,0.3349,0.3356,0.3365,0.3372,0.338,0.3386,0.3398,0.3405,0.3412,0.342,0.3423,0.3427,0.3429,0.3426,0.3425,0.3429,0.3429,0.3433,0.3433,0.3433,0.3433,0,0.3295,0.3305,0.3315,0.3328,0.3331,0.3336,0.3347,0.3353,0.336,0.3368,0.3371,0.3382,0.3391,0.3401,0.3413,0.3418,0.3425,0.3428,0.3422,0.3423,0.3423,0.3423,0.3424,0.3424,0.3429,0.3429,0.3429,0,0.3296,0.3301,0.3314,0.3319,0.3326,0.3333,0.3339,0.3349,0.3355,0.3367,0.337,0.338,0.3388,0.3402,0.3411,0.342,0.3423,0.3423,0.3425,0.3422,0.3423,0.3422,0.3422,0.3422,0.3422,0.3422,0.3422,0,0.3296,0.33,0.3308,0.3317,0.3324,0.3332,0.3341,0.3344,0.3355,0.3361,0.337,0.3377,0.3389,0.3398,0.3408,0.3414,0.342,0.3421,0.3422,0.3419,0.3415,0.3417,0.342,0.3421,0.3421,0.3422,0.3422,0.3422,0.3294,0.3299,0.3309,0.3317,0.3324,0.3332,0.3337,0.3345,0.3352,0.3363,0.3368,0.3377,0.3386,0.3401,0.3407,0.3414,0.3415,0.3416,0.3417,0.3417,0.3416,0.3414,0.3415,0.3416,0.3416,0.3416,0.3416,0,0.3294,0.33,0.3308,0.3319,0.3326,0.333,0.3339,0.3344,0.3352,0.336,0.3368,0.3378,0.3386,0.3396,0.3405,0.3409,0.3411,0.3411,0.341,0.3412,0.3414,0.3412,0.3408,0.3408,0.3408,0.3408,0.3408,0.3408,0.3295,0.3303,0.3308,0.3319,0.3326,0.3334,0.3339,0.3345,0.3352,0.3363,0.337,0.3376,0.3385,0.3394,0.3402,0.3405,0.3407,0.3406,0.3409,0.3411,0.3412,0.3412,0.3411,0.3406,0.3406,0.3406,0.3406,0.3406]},{"header":{"parameterUnit":"m.s-1","parameterCategory":1,"la1":30.2991,"la2":30.254,"lo1":-89.0895,"lo2":-89.0444,"dy":0.0017,"dx":0.0017,"nx":28,"ny":28,"refTime":"2026-02-12T03:00:00:Z","depth":0,"parameterNumber":3,"parameterNumberName":"V-component_of_WINDS"},"data":[0,0,0,0,0,0,0,0,0,0,0,0,0,0,0,0,0,0,0,0,0,0,0,0,0,0,0,0,0,0,0,0,0,0,0,0,0,0,0,0,0,0,0,0,0,0,0,0,0,0,0,0,0,0,0,0,0,0,-0.1446,-0.1446,0,-0.1499,-0.15,-0.15,-0.1511,-0.1511,-0.1511,-0.151,-0.1566,-0.1567,-0.1569,0,0,0,0,0,0,0,0,0,0,0,0,0,-0.1355,-0.1356,-0.1446,-0.1446,-0.1447,-0.1499,-0.15,-0.15,-0.1511,-0.1511,-0.151,-0.151,-0.1565,-0.1567,-0.1569,0,0,0,0,0,0,0,0,0,0,0,0,0,-0.14,-0.1357,-0.1446,-0.1459,-0.1461,-0.1499,-0.15,-0.1501,-0.1512,-0.1511,-0.151,-0.151,-0.1564,-0.1567,-0.157,-0.1599,0,0,-0.1578,-0.1579,0,0,0,0,0,0,0,0,-0.1397,-0.1403,-0.1456,-0.1458,-0.146,-0.1498,-0.1488,-0.1534,-0.1512,-0.1492,-0.151,-0.1509,-0.1544,-0.1548,-0.1559,-0.1601,-0.1604,-0.1578,-0.158,-0.1581,-0.1582,0,0,0,0,0,0,0,-0.1394,-0.1401,-0.1467,-0.1457,-0.1459,-0.1462,-0.1468,-0.1497,-0.1521,-0.1494,-0.1495,-0.1501,-0.1545,-0.1557,-0.1561,-0.1605,-0.1578,-0.1581,-0.1582,-0.1584,-0.1673,-0.1674,0,0,0,0,0,0,-0.1389,-0.1398,-0.1465,-0.1468,-0.1426,-0.1465,-0.1471,-0.1486,-0.152,-0.1525,-0.1501,-0.1501,-0.1552,-0.1558,-0.1563,-0.1599,-0.1581,-0.1584,-0.1585,-0.1672,-0.1673,-0.1674,0,0,0,0,0,0,-0.1387,-0.1394,-0.1463,-0.1434,-0.1443,-0.1467,-0.1484,-0.1488,-0.15,-0.1526,-0.153,-0.1509,-0.1552,-0.1559,-0.159,-0.1601,-0.1585,-0.1588,-0.1671,-0.1672,-0.1673,-0.1671,0,0,0,0,0,0,-0.1384,-0.1394,-0.1405,-0.1434,-0.1444,-0.1489,-0.1485,-0.1489,-0.1504,-0.1505,-0.1535,-0.1539,-0.1552,-0.1585,-0.1592,-0.1604,-0.159,-0.167,-0.1672,-0.1673,-0.167,-0.1672,-0.1673,0,0,0,0,0,-0.1381,-0.1402,-0.1405,-0.1413,-0.1458,-0.1489,-0.1495,-0.1509,-0.1505,-0.1517,-0.1534,-0.1538,-0.1599,-0.1588,-0.1596,-0.1609,-0.167,-0.1671,-0.1673,-0.1669,-0.1671,-0.1673,0,0,0,0,0,0,-0.1374,-0.1406,-0.141,-0.1441,-0.1462,-0.1491,-0.1506,-0.1511,-0.1534,-0.1534,-0.1551,-0.1557,-0.1587,-0.1601,-0.159,-0.1639,-0.1634,-0.1637,-0.1628,-0.1631,-0.1632,-0.1628,-0.1592,0,0,0,0,0,-0.1376,-0.1398,-0.1425,-0.145,-0.1461,-0.1481,-0.1495,-0.1505,-0.1527,-0.1536,-0.1556,-0.1578,-0.1602,-0.1617,-0.1641,-0.1672,-0.1679,-0.1685,-0.1687,-0.1688,-0.169,-0.1708,-0.1711,-0.1679,-0.1679,-0.1679,0,0,-0.1381,-0.1401,-0.1414,-0.145,-0.1467,-0.149,-0.1489,-0.1513,-0.153,-0.154,-0.157,-0.1585,-0.1611,-0.1642,-0.1657,-0.1655,-0.1701,-0.169,-0.1691,-0.1692,-0.171,-0.1713,-0.1715,-0.168,-0.168,-0.168,0,0,-0.1401,-0.1418,-0.1441,-0.1458,-0.1485,-0.1498,-0.1504,-0.1532,-0.1542,-0.1572,-0.158,-0.1601,-0.1642,-0.166,-0.1675,-0.1701,-0.1706,-0.1709,-0.1717,-0.1733,-0.1736,-0.1738,-0.1747,-0.175,-0.1711,-0.1711,-0.1711,0,-0.1403,-0.1437,-0.1452,-0.1476,-0.1491,-0.1501,-0.1524,-0.1541,-0.1574,-0.1584,-0.1581,-0.1633,-0.1651,-0.1687,-0.1693,-0.1705,-0.1711,-0.1705,-0.1734,-0.1737,-0.1739,-0.1748,-0.1751,-0.1711,-0.1711,-0.1711,-0.1711,0,-0.1439,-0.1462,-0.1478,-0.1508,-0.1526,-0.1549,-0.1568,-0.1583,-0.1591,-0.1605,-0.1636,-0.1658,-0.1686,-0.1696,-0.1704,-0.1732,-0.173,-0.1731,-0.1726,-0.1742,-0.1751,-0.1754,-0.1711,-0.1711,-0.1711,-0.1711,0,0,-0.1455,-0.1494,-0.1499,-0.1513,-0.1543,-0.1562,-0.1586,-0.1613,-0.1626,-0.1649,-0.1669,-0.1704,-0.1704,-0.1721,-0.1731,-0.1746,-0.1765,-0.1745,-0.1746,-0.1747,-0.1798,-0.1796,-0.18,-0.1769,-0.177,-0.177,-0.1795,0,-0.1478,-0.1521,-0.1535,-0.157,-0.1592,-0.1602,-0.1623,-0.1644,-0.1658,-0.1679,-0.1694,-0.1718,-0.1718,-0.1727,-0.1743,-0.176,-0.1776,-0.1758,-0.1788,-0.1789,-0.178,-0.1805,-0.1804,-0.1826,-0.1799,-0.1799,-0.18,0,-0.1511,-0.1533,-0.157,-0.1597,-0.1607,-0.1625,-0.1651,-0.1671,-0.1695,-0.1704,-0.1723,-0.1732,-0.1757,-0.1751,-0.1787,-0.1775,-0.1788,-0.1798,-0.1799,-0.1802,-0.1795,-0.1808,-0.1834,-0.1837,-0.1805,-0.1805,-0.1805,0,-0.1518,-0.1558,-0.1585,-0.1597,-0.1629,-0.1642,-0.1656,-0.1679,-0.1695,-0.1718,-0.1728,-0.1754,-0.1768,-0.1788,-0.1803,-0.1798,-0.1837,-0.1833,-0.1845,-0.1845,-0.1853,-0.1852,-0.1881,-0.1862,-0.1862,-0.1862,-0.1862,0,-0.1542,-0.1564,-0.1589,-0.1606,-0.1631,-0.1647,-0.1672,-0.1687,-0.1708,-0.1728,-0.1739,-0.1757,-0.1777,-0.1799,-0.1812,-0.1839,-0.1845,-0.1853,-0.1856,-0.1852,-0.1851,-0.186,-0.1859,-0.1863,-0.1863,-0.1863,-0.1863,0,-0.1554,-0.1572,-0.1602,-0.163,-0.1638,-0.1655,-0.1679,-0.1696,-0.1711,-0.1736,-0.1743,-0.1766,-0.1791,-0.1809,-0.1843,-0.1851,-0.188,-0.1884,-0.1872,-0.1873,-0.1885,-0.1883,-0.192,-0.1926,-0.1904,-0.1904,-0.1904,0,-0.1568,-0.1585,-0.1615,-0.1629,-0.1643,-0.1665,-0.1681,-0.1698,-0.1714,-0.1743,-0.1756,-0.1782,-0.1804,-0.1845,-0.1865,-0.189,-0.1894,-0.1905,-0.1897,-0.1892,-0.1893,-0.1892,-0.1893,-0.1906,-0.1906,-0.1906,-0.1906,0,-0.159,-0.1598,-0.1619,-0.1645,-0.1663,-0.1684,-0.1705,-0.1715,-0.1736,-0.1754,-0.178,-0.1797,-0.1831,-0.1857,-0.1884,-0.1899,-0.1906,-0.1908,-0.1912,-0.1908,-0.19,-0.1904,-0.1874,-0.1907,-0.1907,-0.1907,-0.1907,-0.1907,-0.1603,-0.1618,-0.1642,-0.1666,-0.1684,-0.1703,-0.172,-0.1736,-0.1758,-0.1787,-0.1796,-0.1823,-0.1847,-0.1884,-0.19,-0.1921,-0.192,-0.1927,-0.1928,-0.1929,-0.1929,-0.1897,-0.1926,-0.1926,-0.1926,-0.1926,-0.1926,0,-0.1625,-0.164,-0.1663,-0.1691,-0.171,-0.1715,-0.1739,-0.1754,-0.1778,-0.1799,-0.1821,-0.1851,-0.1876,-0.1898,-0.1924,-0.1937,-0.1941,-0.1943,-0.1942,-0.1946,-0.1928,-0.1922,-0.194,-0.194,-0.194,-0.194,-0.194,-0.194,-0.1638,-0.1665,-0.1676,-0.1712,-0.1727,-0.1754,-0.1767,-0.1784,-0.1802,-0.1835,-0.1855,-0.1869,-0.1891,-0.1919,-0.1943,-0.1948,-0.1957,-0.1959,-0.1965,-0.1948,-0.1947,-0.1945,-0.1939,-0.1961,-0.1961,-0.1981,-0.1981,-0.1981]}]]